Вернуться в каталог

METEOR 2-5 DEB

АктивенPO
NORAD 38280·DEBRIS·🇷🇺 Russia

Запущен Oct 31, 1979 с Plesetsk Cosmodrome

Loading…

Ближайшие Пролёты (ближайшие 24 часа)

TLE

СвежийSource: Space-Track

Эпоха: Sep 12, 2026, 01:07 UTC

1 38280U 79095CA  26255.04654141  .00001257  00000-0  33500-3 0  9995
2 38280  81.1884   8.8529 0008735 124.6949 235.5067 14.47977709820073

Отслеживайте METEOR 2-5 DEB в реальном времени с AllMySat

Download on the App Store